Track COSMOS 2485 (GLONASS) now! COSMOS 2485 (GLONASS) is classified as:
1 39155U 13019A 24252.27378785 .00000025 00000-0 00000-0 0 9996 2 39155 65.0790 95.3735 0022023 227.6517 132.2373 2.13101935 88498